TimeCST,TemperatureF,Dew PointF,Humidity,Sea Level PressureIn,VisibilityMPH,Wind Direction,Wind SpeedMPH,Gust SpeedMPH,PrecipitationIn,Events,Conditions,WindDirDegrees,DateUTC
12:38 AM,8.6,6.8,92,30.00,1.8,West,6.9,-,N/A,,Overcast,260,2012-12-29 06:38:00
12:46 AM,8.6,8.6,100,30.01,3.0,WSW,4.6,-,N/A,,Overcast,240,2012-12-29 06:46:00
12:53 AM,9.0,7.0,92,30.12,4.0,WSW,6.9,-,N/A,,Overcast,240,2012-12-29 06:53:00
1:36 AM,3.2,1.4,92,29.99,6.0,West,3.5,-,N/A,,Mostly Cloudy,260,2012-12-29 07:36:00
1:50 AM,3.2,1.4,92,30.00,6.0,West,4.6,-,N/A,,Scattered Clouds,260,2012-12-29 07:50:00
1:53 AM,1.9,-0.0,91,30.12,5.0,WSW,4.6,-,N/A,,Partly Cloudy,250,2012-12-29 07:53:00
2:16 AM,1.4,-0.4,92,30.01,5.0,WSW,5.8,-,N/A,,Mostly Cloudy,250,2012-12-29 08:16:00
2:53 AM,-0.0,-2.0,91,30.14,6.0,West,5.8,-,N/A,,Overcast,260,2012-12-29 08:53:00
3:28 AM,-0.4,-2.2,92,30.01,2.0,SSW,3.5,-,N/A,,Overcast,200,2012-12-29 09:28:00
3:34 AM,-0.4,-2.2,92,30.01,1.2,SSW,4.6,-,N/A,,Overcast,210,2012-12-29 09:34:00
3:51 AM,-2.2,-2.2,100,30.01,0.2,Calm,Calm,-,N/A,Fog,Light Freezing Fog,0,2012-12-29 09:51:00
3:53 AM,-2.0,-2.9,96,30.14,0.2,Calm,Calm,-,N/A,Fog,Light Freezing Fog,0,2012-12-29 09:53:00
4:53 AM,-2.9,-4.0,95,30.14,0.2,SSW,5.8,-,N/A,Fog,Light Freezing Fog,210,2012-12-29 10:53:00
5:13 AM,-2.2,-5.8,85,30.01,0.5,SW,3.5,-,N/A,Fog,Light Freezing Fog,230,2012-12-29 11:13:00
5:27 AM,-2.2,-4.0,92,30.01,0.5,SSW,4.6,-,N/A,Fog,Light Freezing Fog,200,2012-12-29 11:27:00
5:34 AM,-2.2,-5.8,85,30.00,0.2,SSW,3.5,-,N/A,Fog,Light Freezing Fog,200,2012-12-29 11:34:00
5:53 AM,-2.9,-4.0,95,30.13,0.2,SSW,5.8,-,N/A,Fog,Light Freezing Fog,200,2012-12-29 11:53:00
6:53 AM,-4.0,-5.1,95,30.14,0.2,South,4.6,-,N/A,Fog,Light Freezing Fog,180,2012-12-29 12:53:00
7:10 AM,-4.0,-5.8,92,30.02,0.5,South,3.5,-,N/A,Fog,Light Freezing Fog,190,2012-12-29 13:10:00
7:27 AM,-4.0,-5.8,92,30.03,1.2,South,3.5,-,N/A,,Overcast,190,2012-12-29 13:27:00
7:34 AM,-2.2,-5.8,85,30.03,1.5,South,3.5,-,N/A,,Overcast,190,2012-12-29 13:34:00
7:39 AM,-2.2,-5.8,85,30.03,3.0,SSW,4.6,-,N/A,,Mostly Cloudy,200,2012-12-29 13:39:00
7:53 AM,-4.0,-6.0,91,30.15,7.0,Calm,Calm,-,N/A,,Mostly Cloudy,0,2012-12-29 13:53:00
8:00 AM,-2.2,-5.8,85,30.03,6.0,South,3.5,-,N/A,,Scattered Clouds,180,2012-12-29 14:00:00
8:53 AM,-4.0,-6.0,91,30.15,2.5,South,3.5,-,N/A,,Clear,170,2012-12-29 14:53:00
9:02 AM,-4.0,-5.8,92,30.02,1.5,Calm,Calm,-,N/A,,Clear,0,2012-12-29 15:02:00
9:05 AM,-4.0,-5.8,92,30.02,1.2,Calm,Calm,-,N/A,,Partly Cloudy,0,2012-12-29 15:05:00
9:12 AM,-2.2,-5.8,85,30.02,1.0,South,3.5,-,N/A,,Mist,170,2012-12-29 15:12:00
9:16 AM,-2.2,-5.8,85,30.02,1.5,SSE,3.5,-,N/A,,Scattered Clouds,160,2012-12-29 15:16:00
9:18 AM,-2.2,-5.8,85,30.02,2.0,South,3.5,-,N/A,,Mostly Cloudy,170,2012-12-29 15:18:00
9:27 AM,-4.0,-5.8,92,30.02,5.0,South,3.5,-,N/A,,Mostly Cloudy,170,2012-12-29 15:27:00
9:53 AM,-0.9,-4.0,87,30.15,6.0,SSW,4.6,-,N/A,,Overcast,200,2012-12-29 15:53:00
10:53 AM,1.0,-0.9,91,30.17,2.0,SW,5.8,-,N/A,,Overcast,230,2012-12-29 16:53:00
10:56 AM,1.4,-0.4,92,30.05,0.8,SW,4.6,-,N/A,,Overcast,230,2012-12-29 16:56:00
11:08 AM,1.4,-0.4,92,30.04,0.2,SW,3.5,-,N/A,Fog,Light Freezing Fog,230,2012-12-29 17:08:00
11:24 AM,3.2,1.4,92,30.04,0.8,WSW,4.6,-,N/A,,Overcast,240,2012-12-29 17:24:00
11:29 AM,5.0,3.2,92,30.04,1.5,WSW,4.6,-,N/A,,Overcast,240,2012-12-29 17:29:00
11:35 AM,5.0,3.2,92,30.04,2.0,West,4.6,-,N/A,,Overcast,260,2012-12-29 17:35:00
11:53 AM,7.0,5.0,92,30.15,2.5,West,3.5,-,N/A,,Overcast,260,2012-12-29 17:53:00
12:53 PM,10.9,8.1,88,30.13,2.5,WSW,10.4,-,N/A,,Overcast,240,2012-12-29 18:53:00
1:18 PM,10.4,6.8,85,30.01,4.0,WSW,10.4,-,N/A,,Overcast,240,2012-12-29 19:18:00
1:53 PM,10.0,7.0,87,30.13,8.0,WSW,5.8,-,N/A,,Scattered Clouds,240,2012-12-29 19:53:00
2:53 PM,10.0,6.1,84,30.14,10.0,West,6.9,-,N/A,,Clear,270,2012-12-29 20:53:00
3:53 PM,6.1,3.0,87,30.17,10.0,West,4.6,-,N/A,,Clear,260,2012-12-29 21:53:00
5:53 PM,1.9,-0.0,91,30.19,10.0,Calm,Calm,-,N/A,,Clear,0,2012-12-29 23:53:00
7:53 PM,-0.9,-2.9,91,30.21,9.0,South,4.6,-,N/A,,Clear,180,2012-12-30 01:53:00
8:53 PM,-0.0,-2.0,91,30.22,10.0,South,3.5,-,N/A,,Clear,190,2012-12-30 02:53:00
9:53 PM,-0.9,-4.0,87,30.22,10.0,South,4.6,-,N/A,,Clear,170,2012-12-30 03:53:00
10:53 PM,-0.9,-4.0,87,30.22,10.0,South,4.6,-,N/A,,Clear,180,2012-12-30 04:53:00
11:53 PM,-0.0,-2.9,88,30.19,10.0,South,3.5,-,N/A,,Clear,170,2012-12-30 05:53:00